{"data":{"norad_id":59765,"intl_designator":"2024-091N","name":"STARLINK-11106 [DTC]","alt_names":[],"object_type":"PAYLOAD","status":"ACTIVE","operator":null,"country":"US","launch_date":"2024-05-14","launch_site_code":"AFWTR","launch_vehicle":null,"mission":null,"orbit_class":"UNKNOWN","rcs_meters":null,"size_class":null,"mass_kg":null,"dimensions":null,"purposes":["comms"],"wikipedia_slug":null,"has_3d_model":false,"image_url":null,"decayed_at":null,"tle_current":{"epoch":"2026-05-24T13:26:38.868576Z","epoch_age_seconds":116222,"freshness":"FRESH","line1":"1 59765U 24091N   26144.56017209  .00001819  00000+0  19866-4 0  9997","line2":"2 59765  53.1588 191.9548 0000852  76.5881 283.5232 15.69708233117436","mean_motion":15.69708233,"eccentricity":8.52e-5,"inclination_deg":53.1588,"raan_deg":191.9548,"arg_perigee_deg":76.5881,"mean_anomaly_deg":283.5232,"bstar":1.9866e-5,"rev_number":11743,"period_min":91.736793483455,"perigee_km":359.1577404798,"apogee_km":360.3058733245,"semimajor_km":6737.8688069022,"source":"CELESTRAK","updated_at":"2026-05-25T13:38:19.058159Z"}}}